Flag for Spain Weather past 2 weeks in Linares, Spain

Now
81 °F

Passing clouds.


Feels Like: 79 °F
Forecast: 62 / 90 °F
Wind: 12 mph from South

Location: Granada / Aeropuerto

Current Time: Jun 3, 2015 at 9:47:01 PM

Latest Report: Jun 3, 2015 at 9:00 PM


Visibility: N/A

Pressure: 30.09 "Hg

Humidity: 28%

Dew point: 45 °F

Location of LinaresLocation

Historic Weather in Linares — Graph

°F

Linares temperature yesterday

Maximum temperature yesterday: 90 °F (at 3:30 PM)
Minimum temperature yesterday: 54 °F (at 6:30 AM)
Average temperature yesterday: 76 °F

Past Weeks' High & Low Weather Summary

 TemperatureHumidityPressure
High91 °F (Jun 3, 5:00 PM)94% (Jun 1, 6:00 AM)30.21 "Hg (Jun 1, 6:00 AM)
Low50 °F (May 22, 6:30 AM)14% (May 27, 4:00 PM)29.83 "Hg (May 19, 8:00 PM)
Average71 °F48%30.05 "Hg
* Reported May 19 8:00 PM — Jun 3 8:30 PM, Linares, Weather by CustomWeather, © 2015

Note: Actual official high and low records may vary slightly from our data, if they occured in-between our weather recording intervals... More about our weather records

Advertising

Linares weather history for previous 24 hours

 ConditionsComfort  
Time TempWeatherWind HumidityBarometerVisibility
8:30 PM
Wed, Jun 3
82 °FPassing clouds.14 mph25%30.09 "HgN/A
8:00 PM84 °FPassing clouds.16 mph23%30.07 "HgN/A
7:30 PM86 °FPassing clouds.10 mph24%30.07 "HgN/A
7:00 PM88 °FPassing clouds.13 mph21%30.07 "HgN/A
6:30 PM90 °FPassing clouds.13 mph20%30.07 "HgN/A
6:00 PM90 °FPassing clouds.14 mph18%30.07 "HgN/A
5:30 PM90 °FPassing clouds.10 mph18%30.07 "HgN/A
5:00 PM91 °FPassing clouds.7 mph16%30.07 "HgN/A
4:30 PM90 °FPassing clouds.5 mph15%30.07 "HgN/A
4:00 PM90 °FSunny.1 mph16%30.09 "Hg10 mi
3:30 PM90 °FSunny.3 mph16%30.09 "Hg10 mi
3:00 PM90 °FSunny.2 mph15%30.12 "Hg10 mi
2:30 PM88 °FSunny.2 mph16%30.12 "Hg10 mi
2:00 PM88 °FSunny.2 mph15%30.12 "Hg10 mi
1:30 PM86 °FSunny.3 mph17%30.15 "Hg10 mi
1:00 PM84 °FPassing clouds.8 mph19%30.15 "HgN/A
12:30 PM84 °FPassing clouds.9 mph18%30.15 "HgN/A
12:00 PM81 °FPassing clouds.6 mph24%30.15 "HgN/A
11:30 AM79 °FSunny.2 mph28%30.15 "Hg10 mi
11:00 AM77 °FSunny.2 mph32%30.15 "Hg10 mi
10:30 AM73 °FPassing clouds.3 mph41%30.15 "HgN/A
10:00 AM72 °FSunny.1 mph41%30.15 "Hg10 mi
9:30 AM70 °FSunny.No wind46%30.15 "Hg10 mi
9:00 AM64 °FSunny.No wind60%30.15 "Hg10 mi
8:30 AM63 °FSunny.No wind59%30.15 "Hg10 mi
8:00 AM59 °FSunny.No wind68%30.15 "Hg10 mi
7:30 AM52 °FClear.No wind88%30.15 "Hg10 mi
7:00 AM52 °FClear.No wind82%30.15 "Hg10 mi
6:30 AM52 °FClear.2 mph82%30.12 "Hg10 mi
6:00 AM54 °FClear.No wind77%30.12 "Hg10 mi
11:00 PM
Tue, Jun 2
72 °FClear.No wind47%30.12 "Hg10 mi
10:30 PM75 °FClear.1 mph39%30.12 "Hg10 mi
10:00 PM75 °FPassing clouds.5 mph39%30.09 "HgN/A
9:30 PM77 °FPassing clouds.10 mph36%30.09 "HgN/A
9:00 PM79 °FPassing clouds.12 mph34%30.07 "HgN/A
Weather by CustomWeather, © 2015

See weather overviewHow to use our weather pages